Tracking 21076 objects as of 10-Aug-2020
HD Live streaming from Space Station
objects crossing your sky now
Track the most recent launched group of Starlink satellites

COSMOS 2251 DEB

Track COSMOS 2251 DEB now!
10-day predictions


NORAD ID: 35825
Int'l Code: 1993-036ASX
Perigee: 755.1 km
Apogee: 1,309.1 km
Inclination: 74.1 °
Period: 105.7 minutes
Semi major axis: 7403 km
RCS: 0.0121 m2 (small)
Launch date: June 16, 1993
Source: Commonwealth of Independent States (former USSR) (CIS)
Launch site: PLESETSK MISSILE AND SPACE COMPLEX (PKMTR)

Note: This is SATELLITE DEBRIS
aabbcc
Your satellite tracking list
Your tracking list is empty




NASA's NSSDC Master Catalog

Two Line Element Set (TLE):
1 35825U 93036ASX 20222.29014907  .00000191  00000-0  17169-3 0  9992
2 35825  74.1186  82.3719 0374140 278.8087  77.0841 13.62957226564893
Source of the keplerian elements: AFSPC